[[{"header":{"parameterUnit":"m.s-1","parameterCategory":1,"la1":30.2991,"la2":30.254,"lo1":-89.0895,"lo2":-89.0444,"dy":0.0017,"dx":0.0017,"nx":28,"ny":28,"refTime":"2023-10-13T21:00:00:Z","depth":0,"parameterNumber":2,"parameterNumberName":"U-component_of_WINDS"},"data":[0,0,0,0,0,0,0,0,0,0,0,0,0,0,0,0,0,0,0,0,0,0,0,0,0,0,0,0,0,0,0,0,0,0,0,0,0,0,0,0,0,0,0,0,0,0,0,0,0,0,0,0,0,0,0,0,0,0,3.068,3.068,0,3.0714,3.0715,3.0715,3.0672,3.067,3.0668,3.0667,3.07,3.0703,3.0705,0,0,0,0,0,0,0,0,0,0,0,0,0,3.0577,3.0579,3.068,3.068,3.0681,3.0714,3.0715,3.0715,3.0672,3.067,3.0668,3.0666,3.0699,3.0702,3.0705,0,0,0,0,0,0,0,0,0,0,0,0,0,3.0617,3.058,3.068,3.0663,3.0662,3.0714,3.0715,3.0715,3.0672,3.067,3.0668,3.0665,3.0699,3.0702,3.0705,3.0775,0,0,3.0716,3.0718,0,0,0,0,0,0,0,0,3.0615,3.0621,3.0665,3.0665,3.0663,3.0686,3.069,3.0735,3.0673,3.0668,3.0667,3.0664,3.0697,3.0701,3.0712,3.0776,3.0778,3.0717,3.0719,3.072,3.0721,0,0,0,0,0,0,0,3.0612,3.062,3.0693,3.0666,3.0665,3.0654,3.0657,3.0699,3.0696,3.0669,3.0666,3.067,3.0696,3.0709,3.0713,3.0778,3.0716,3.072,3.0722,3.0723,3.0902,3.0905,0,0,0,0,0,0,3.0612,3.0617,3.0692,3.0695,3.0633,3.0658,3.0661,3.0681,3.0695,3.0695,3.0672,3.0668,3.0704,3.0709,3.0714,3.0797,3.072,3.0724,3.0726,3.09,3.0903,3.0906,0,0,0,0,0,0,3.061,3.0619,3.0691,3.0655,3.0664,3.0662,3.0685,3.0683,3.0696,3.0698,3.0697,3.0686,3.0703,3.0709,3.076,3.0797,3.0725,3.0728,3.0897,3.0901,3.0904,3.0963,0,0,0,0,0,0,3.0607,3.0618,3.0645,3.0656,3.0666,3.0737,3.0687,3.0686,3.0702,3.0697,3.071,3.071,3.0701,3.0755,3.0764,3.0801,3.0731,3.0893,3.0898,3.0903,3.0958,3.0968,3.0977,0,0,0,0,0,3.0603,3.0659,3.0646,3.0655,3.0699,3.0739,3.0745,3.0734,3.0705,3.0732,3.0734,3.071,3.0792,3.0761,3.077,3.0809,3.0891,3.0897,3.0903,3.0953,3.0966,3.0977,0,0,0,0,0,0,3.065,3.066,3.0646,3.0707,3.0723,3.0732,3.0765,3.0748,3.0771,3.0765,3.075,3.0753,3.0809,3.0814,3.0779,3.0878,3.0837,3.0845,3.0872,3.0884,3.0894,3.0892,3.0734,0,0,0,0,0,3.0668,3.0701,3.0707,3.076,3.0769,3.0766,3.0783,3.0774,3.0789,3.0795,3.0801,3.0816,3.0846,3.0865,3.0892,3.0958,3.0961,3.099,3.1,3.1008,3.1015,3.1051,3.1064,3.0925,3.0925,3.0925,0,0,3.0704,3.0714,3.0735,3.077,3.0781,3.0816,3.0772,3.0809,3.0835,3.0801,3.085,3.0855,3.0872,3.0931,3.0957,3.0937,3.1054,3.1015,3.1022,3.1024,3.1059,3.1072,3.1084,3.0929,3.0929,3.0928,0,0,3.0788,3.0799,3.0845,3.0857,3.0875,3.0873,3.0884,3.0897,3.0899,3.0949,3.0924,3.0954,3.1005,3.1018,3.1032,3.1124,3.1103,3.1133,3.1184,3.122,3.1231,3.1241,3.1274,3.1286,3.114,3.114,3.114,0,3.0831,3.0882,3.087,3.0911,3.0927,3.0899,3.0946,3.0959,3.0985,3.0997,3.0974,3.1038,3.1047,3.111,3.1133,3.1145,3.1157,3.1131,3.1231,3.124,3.1249,3.1281,3.1293,3.1144,3.1143,3.1143,3.1142,0,3.0934,3.097,3.1005,3.1032,3.1053,3.1096,3.1091,3.1113,3.1102,3.1103,3.1154,3.1165,3.1194,3.1209,3.1198,3.1271,3.1257,3.1233,3.1192,3.1266,3.1296,3.1307,3.1149,3.1147,3.1146,3.1145,0,0,3.1046,3.1068,3.1081,3.1094,3.1113,3.1141,3.1183,3.1213,3.1233,3.1252,3.1288,3.1333,3.1311,3.1326,3.1317,3.1348,3.1421,3.132,3.132,3.1339,3.1503,3.1522,3.1536,3.1408,3.1411,3.1412,3.1502,0,3.1131,3.1205,3.1197,3.1268,3.1302,3.1277,3.1314,3.133,3.1332,3.1361,3.1363,3.1395,3.1364,3.1373,3.1403,3.1406,3.1454,3.14,3.1441,3.1443,3.1438,3.1551,3.157,3.1654,3.1514,3.1515,3.1517,0,3.1239,3.1264,3.1338,3.1354,3.1368,3.1401,3.1429,3.1457,3.1475,3.1474,3.1493,3.1478,3.1522,3.148,3.154,3.1503,3.152,3.1524,3.1527,3.153,3.1484,3.1557,3.1681,3.1693,3.1535,3.1533,3.1532,0,3.1314,3.1366,3.1418,3.1429,3.1449,3.1473,3.1482,3.1498,3.1517,3.1541,3.1554,3.1582,3.1598,3.1621,3.1615,3.1585,3.1677,3.1634,3.1677,3.1678,3.1697,3.1696,3.1825,3.1708,3.1708,3.1708,3.1707,0,3.1409,3.1456,3.1452,3.1484,3.1536,3.1527,3.1578,3.1584,3.1599,3.1632,3.1612,3.1643,3.1634,3.1665,3.166,3.1711,3.1718,3.1719,3.1717,3.1721,3.1721,3.1731,3.1725,3.1711,3.171,3.171,3.1709,0,3.1502,3.1501,3.1556,3.1571,3.1576,3.1613,3.1626,3.1656,3.1657,3.1699,3.1708,3.171,3.1746,3.1743,3.1782,3.1779,3.1842,3.1833,3.1836,3.1834,3.1878,3.1874,3.2018,3.2036,3.1908,3.1909,3.191,0,3.1562,3.1598,3.1617,3.1638,3.1649,3.1683,3.1703,3.1696,3.1717,3.1742,3.1769,3.1803,3.183,3.1888,3.1893,3.1923,3.1915,3.1964,3.1919,3.1922,3.1916,3.1914,3.1918,3.1972,3.1974,3.1975,3.1976,0,3.167,3.1668,3.1698,3.1729,3.1754,3.1777,3.1798,3.1816,3.1811,3.1837,3.1873,3.1894,3.1936,3.197,3.2,3.2009,3.1992,3.199,3.2001,3.2005,3.2006,3.2006,3.186,3.1986,3.1985,3.1984,3.1984,3.1983,3.1748,3.1779,3.1798,3.1833,3.1848,3.1869,3.1899,3.1905,3.1936,3.1969,3.1963,3.2005,3.2023,3.2061,3.2074,3.2106,3.2089,3.2105,3.211,3.2114,3.2119,3.2001,3.2112,3.2111,3.2111,3.2111,3.211,0,3.1855,3.1867,3.1899,3.193,3.1957,3.194,3.1964,3.1988,3.2025,3.2044,3.2071,3.2114,3.2148,3.2156,3.2189,3.2213,3.2206,3.2222,3.222,3.2223,3.2133,3.212,3.2227,3.2227,3.2227,3.2227,3.2227,3.2227,3.1914,3.1966,3.1967,3.2028,3.2039,3.208,3.2095,3.2114,3.213,3.2179,3.2207,3.2213,3.2228,3.2262,3.2293,3.2294,3.2307,3.2326,3.2325,3.224,3.2229,3.2218,3.2205,3.2329,3.2329,3.2412,3.2413,3.2413]},{"header":{"parameterUnit":"m.s-1","parameterCategory":1,"la1":30.2991,"la2":30.254,"lo1":-89.0895,"lo2":-89.0444,"dy":0.0017,"dx":0.0017,"nx":28,"ny":28,"refTime":"2023-10-13T21:00:00:Z","depth":0,"parameterNumber":3,"parameterNumberName":"V-component_of_WINDS"},"data":[0,0,0,0,0,0,0,0,0,0,0,0,0,0,0,0,0,0,0,0,0,0,0,0,0,0,0,0,0,0,0,0,0,0,0,0,0,0,0,0,0,0,0,0,0,0,0,0,0,0,0,0,0,0,0,0,0,0,-6.6698,-6.67,0,-6.6854,-6.6856,-6.6858,-6.6797,-6.6793,-6.679,-6.6786,-6.6941,-6.6949,-6.6956,0,0,0,0,0,0,0,0,0,0,0,0,0,-6.6344,-6.6351,-6.6698,-6.67,-6.6702,-6.6854,-6.6856,-6.6858,-6.6797,-6.6793,-6.6789,-6.6784,-6.6939,-6.6948,-6.6957,0,0,0,0,0,0,0,0,0,0,0,0,0,-6.6499,-6.6354,-6.6698,-6.669,-6.6691,-6.6854,-6.6856,-6.6859,-6.6798,-6.6793,-6.6787,-6.6782,-6.6936,-6.6947,-6.6958,-6.7136,0,0,-6.6992,-6.6997,0,0,0,0,0,0,0,0,-6.649,-6.6512,-6.6689,-6.6691,-6.6692,-6.6801,-6.6788,-6.6952,-6.68,-6.6757,-6.6786,-6.678,-6.6899,-6.6913,-6.6954,-6.7143,-6.715,-6.6993,-6.7,-6.7005,-6.7008,0,0,0,0,0,0,0,-6.648,-6.6505,-6.676,-6.6692,-6.6694,-6.6678,-6.6694,-6.6819,-6.6856,-6.6761,-6.6757,-6.6776,-6.6898,-6.6943,-6.6957,-6.7152,-6.6993,-6.7003,-6.701,-6.7014,-6.7498,-6.7504,0,0,0,0,0,0,-6.6469,-6.6496,-6.6755,-6.6764,-6.6576,-6.6689,-6.6707,-6.6771,-6.6855,-6.6863,-6.6781,-6.6773,-6.6926,-6.6944,-6.6962,-6.7178,-6.7005,-6.7016,-6.7022,-6.7492,-6.7499,-6.7506,0,0,0,0,0,0,-6.6462,-6.6493,-6.6749,-6.663,-6.6661,-6.6701,-6.6774,-6.6777,-6.6822,-6.687,-6.6876,-6.682,-6.6923,-6.6946,-6.7094,-6.7182,-6.7021,-6.7031,-6.7485,-6.7494,-6.7503,-6.7609,0,0,0,0,0,0,-6.6452,-6.649,-6.6559,-6.6632,-6.6668,-6.6879,-6.6779,-6.6784,-6.6842,-6.6833,-6.6908,-6.6915,-6.692,-6.7078,-6.7105,-6.7195,-6.704,-6.7477,-6.7489,-6.75,-6.7598,-6.7621,-6.7641,0,0,0,0,0,-6.6439,-6.6582,-6.6563,-6.6594,-6.6755,-6.6884,-6.6905,-6.6909,-6.6849,-6.6918,-6.695,-6.6913,-6.7168,-6.7093,-6.7124,-6.7218,-6.7471,-6.7486,-6.7499,-6.7589,-6.7617,-6.764,0,0,0,0,0,0,-6.6516,-6.6591,-6.6571,-6.6741,-6.6807,-6.6874,-6.6961,-6.6938,-6.7021,-6.7009,-6.7009,-6.7027,-6.718,-6.7213,-6.7129,-6.7396,-6.7311,-6.7331,-6.7368,-6.7395,-6.7416,-6.7405,-6.7049,0,0,0,0,0,-6.6553,-6.6654,-6.6713,-6.6857,-6.6892,-6.6921,-6.6978,-6.6976,-6.7043,-6.707,-6.7112,-6.7179,-6.7274,-6.7336,-6.7426,-6.7603,-6.7619,-6.7683,-6.7704,-6.7721,-6.7739,-6.7836,-6.7866,-6.7551,-6.7551,-6.7551,0,0,-6.663,-6.6683,-6.6746,-6.6874,-6.6925,-6.7029,-6.6945,-6.7057,-6.7134,-6.7087,-6.723,-6.7264,-6.7337,-6.7501,-6.7575,-6.7533,-6.7829,-6.7738,-6.7752,-6.776,-6.7853,-6.7883,-6.7909,-6.756,-6.7558,-6.7557,0,0,-6.6824,-6.6874,-6.7001,-6.7054,-6.7133,-6.7152,-6.7183,-6.7254,-6.7275,-6.7419,-6.7386,-6.7477,-6.764,-6.7695,-6.7744,-6.7961,-6.7931,-6.799,-6.8101,-6.8196,-6.822,-6.8242,-6.8321,-6.8349,-6.8007,-6.8008,-6.8008,0,-6.6909,-6.7065,-6.7068,-6.7185,-6.7242,-6.7206,-6.7335,-6.7386,-6.749,-6.753,-6.7482,-6.7689,-6.7735,-6.7912,-6.7966,-6.8006,-6.8041,-6.7981,-6.8217,-6.8239,-6.826,-6.8334,-6.8364,-6.8014,-6.8014,-6.8013,-6.8012,0,-6.7166,-6.7275,-6.7368,-6.7472,-6.7539,-6.7661,-6.7682,-6.775,-6.7743,-6.7767,-6.7914,-6.797,-6.8071,-6.8113,-6.8105,-6.8289,-6.8262,-6.8216,-6.813,-6.8296,-6.8367,-6.8395,-6.8024,-6.8022,-6.802,-6.8018,0,0,-6.7412,-6.7518,-6.7552,-6.7599,-6.7685,-6.7769,-6.7889,-6.799,-6.8049,-6.8122,-6.8223,-6.8363,-6.8322,-6.8378,-6.8377,-6.846,-6.863,-6.8404,-6.8406,-6.8445,-6.8837,-6.8872,-6.8905,-6.861,-6.8616,-6.862,-6.8832,0,-6.7613,-6.7826,-6.7833,-6.8027,-6.8128,-6.8097,-6.8201,-6.8265,-6.8291,-6.838,-6.8407,-6.8507,-6.8445,-6.8479,-6.856,-6.8592,-6.8709,-6.8577,-6.8704,-6.8708,-6.8688,-6.8942,-6.8978,-6.9175,-6.8859,-6.8864,-6.8867,0,-6.7875,-6.796,-6.8165,-6.8238,-6.828,-6.8375,-6.8469,-6.8555,-6.8626,-6.8639,-6.8703,-6.869,-6.8812,-6.8723,-6.8892,-6.8802,-6.8855,-6.8878,-6.8886,-6.8898,-6.8798,-6.8962,-6.9238,-6.9268,-6.891,-6.8907,-6.8903,0,-6.8035,-6.82,-6.8344,-6.8385,-6.8474,-6.8541,-6.8581,-6.8647,-6.8709,-6.8791,-6.883,-6.8925,-6.8977,-6.905,-6.9063,-6.8996,-6.9233,-6.9144,-6.9247,-6.9247,-6.9298,-6.9295,-6.9587,-6.9331,-6.933,-6.933,-6.9329,0,-6.8259,-6.8386,-6.8417,-6.8506,-6.8648,-6.8655,-6.8794,-6.8829,-6.8889,-6.8983,-6.8961,-6.905,-6.9061,-6.9153,-6.9163,-6.9302,-6.9325,-6.9339,-6.934,-6.9342,-6.934,-6.9376,-6.9363,-6.9338,-6.9336,-6.9334,-6.9333,0,-6.8462,-6.8488,-6.8643,-6.8715,-6.8737,-6.8838,-6.8899,-6.8984,-6.9008,-6.9128,-6.9157,-6.9194,-6.9302,-6.9322,-6.9447,-6.9454,-6.9621,-6.9608,-6.9597,-6.9596,-6.9698,-6.9689,-7.0025,-7.007,-6.9783,-6.9786,-6.9788,0,-6.8603,-6.8701,-6.8784,-6.8847,-6.8891,-6.8992,-6.9055,-6.9066,-6.9132,-6.9223,-6.9297,-6.9402,-6.9487,-6.966,-6.9698,-6.9794,-6.9784,-6.9895,-6.9798,-6.9797,-6.9787,-6.9781,-6.9792,-6.9914,-6.9917,-6.9919,-6.9921,0,-6.8852,-6.8861,-6.8954,-6.9052,-6.9129,-6.9206,-6.9279,-6.9331,-6.9352,-6.9428,-6.9539,-6.9605,-6.9735,-6.984,-6.9937,-6.9976,-6.9953,-6.9952,-6.9981,-6.9983,-6.9974,-6.9982,-6.9649,-6.9944,-6.9942,-6.994,-6.9939,-6.9938,-6.9029,-6.9115,-6.9188,-6.9293,-6.935,-6.9419,-6.9503,-6.9539,-6.9632,-6.9741,-6.9741,-6.9862,-6.9932,-7.006,-7.0107,-7.0201,-7.0165,-7.0207,-7.0218,-7.0228,-7.0239,-6.9959,-7.0218,-7.0218,-7.0217,-7.0217,-7.0216,0,-6.9278,-6.9324,-6.9421,-6.9525,-6.9608,-6.958,-6.9661,-6.9731,-6.9839,-6.9907,-6.9992,-7.012,-7.0222,-7.0269,-7.037,-7.0437,-7.0429,-7.0463,-7.0458,-7.0468,-7.0264,-7.023,-7.0468,-7.0468,-7.0468,-7.0468,-7.0468,-7.0468,-6.9417,-6.9562,-6.958,-6.9752,-6.9797,-6.9918,-6.9966,-7.003,-7.0085,-7.023,-7.0315,-7.0346,-7.0406,-7.0511,-7.0604,-7.0615,-7.0653,-7.0693,-7.0699,-7.0508,-7.0482,-7.0458,-7.0425,-7.0701,-7.0701,-7.0895,-7.0897,-7.0899]}]]